{"data":{"norad_id":69833,"epoch":"2026-09-20T04:50:35.209824Z","epoch_age_seconds":43518,"freshness":"FRESH","line1":"1 69833U 26154Q   26263.20179641  .00012528  00000+0  38123-3 0  9993","line2":"2 69833  53.1566 333.0300 0002292 104.4599 255.6658 15.34405763 13195","mean_motion":15.34405763,"eccentricity":0.0002292,"inclination_deg":53.1566,"raan_deg":333.03,"arg_perigee_deg":104.4599,"mean_anomaly_deg":255.6658,"bstar":0.00038123,"rev_number":1319,"period_min":93.847405603103,"perigee_km":461.11819475308,"apogee_km":464.25402806735,"semimajor_km":6840.8231114102,"source":"CELESTRAK","updated_at":"2026-09-20T09:00:44.295486Z"}}